Temp
22 22 22 22 22 20 23 29 30 28 29 28 28 28 27 26 25 21 21 20 19 18 19 19 19 18 18 18 18 18 18 19 18 19 19 18 18 18 18 18 18 18 19 18 19 19 19 19 19
20 21 23 24 19 19 24 30 29 30 29 29 29 28 26 24 24 22 20 20 19 18 18 18 18 18 18 18 18 18 18 18 18 18 18 18 18 18 18 18 18 18 18 18 19 19 19 19 19
22 23 23 23 18 19 21 29 29 29 29 30 29 28 24 21 22 21 20 19 19 18 17 18 18 18 19 18 18 17 17 18 18 18 18 17 17 17 17 18 19 18 18 18 19 19 20 20 20
23 24 25 25 19 19 19 27 30 29 28 29 29 27 24 23 23 21 20 19 18 18 18 18 18 18 18 18 18 18 18 18 18 17 17 17 17 18 18 18 18 18 19 19 19 19 20 20 19
25 26 26 24 23 21 24 29 29 28 29 28 28 26 23 22 22 21 20 18 18 18 18 18 19 18 18 18 18 18 18 17 17 18 17 17 17 18 18 18 18 18 19 19 19 19 20 19 19
26 25 21 23 24 20 22 30 29 28 29 28 28 25 22 21 21 21 19 19 17 17 18 18 19 18 19 18 17 18 18 17 17 17 17 17 17 17 19 19 18 18 19 19 19 19 19 19 19
27 27 23 25 22 23 25 30 27 28 28 28 28 24 22 20 20 20 19 19 17 18 18 18 18 17 17 18 17 17 17 17 17 17 17 16 17 18 18 18 18 19 19 19 19 19 19 20 20
27 25 24 25 22 20 21 24 29 27 27 28 27 23 22 20 20 19 19 19 18 18 18 18 18 17 17 17 17 17 17 17 17 17 16 17 17 18 18 18 19 19 19 20 20 20 20 20 20
28 26 21 22 25 23 21 22 28 28 28 28 27 25 22 20 20 19 19 18 18 17 17 18 17 17 17 17 17 17 17 17 17 17 16 17 17 18 18 19 18 19 19 20 20 21 21 20 20
28 25 21 20 28 26 24 25 26 28 25 23 24 24 23 20 20 20 19 19 18 18 17 17 17 17 17 17 17 17 16 16 17 16 16 17 17 17 18 19 19 20 20 20 21 21 21 19 21
28 25 27 26 26 27 24 26 25 26 24 24 25 24 22 21 20 20 20 20 19 18 18 17 17 17 17 16 16 16 16 16 16 16 16 17 17 17 19 20 20 20 20 20 20 20 21 20 20
27 27 27 26 26 26 27 27 26 25 23 24 25 23 22 21 21 21 21 19 18 18 18 18 17 17 17 17 16 16 16 16 16 16 17 18 17 18 19 20 20 20 20 20 19 17 19 20 21
28 28 27 26 25 26 26 26 27 25 25 26 26 24 23 22 22 22 20 20 19 18 17 17 17 17 17 17 17 16 17 17 17 18 17 17 18 18 20 20 20 20 20 20 21 20 21 21 22
29 28 27 26 26 25 26 26 27 22 23 26 26 26 25 23 24 22 21 21 20 18 17 17 17 16 17 17 17 17 17 17 18 18 18 18 19 19 20 20 20 20 20 20 20 21 21 20 21
28 28 27 26 26 27 25 24 26 21 23 26 26 26 25 25 25 24 23 21 20 18 18 18 17 17 17 17 16 16 18 17 18 18 18 19 19 20 19 20 20 20 20 22 21 21 21 21 21
29 28 27 28 26 26 25 24 22 20 23 25 27 25 25 25 25 24 23 21 20 18 18 17 17 17 17 17 17 17 17 17 17 18 19 19 19 19 19 20 20 20 21 21 19 22 21 21 19
28 27 29 28 28 27 26 25 24 22 20 25 26 26 25 24 25 24 23 21 19 18 17 17 17 16 16 17 17 17 17 17 16 19 19 19 18 20 19 20 20 21 21 20 20 21 22 20 20
28 30 31 30 29 29 28 26 27 27 25 26 26 26 25 24 24 24 23 21 19 18 17 17 16 16 18 18 18 17 18 19 19 20 19 20 19 19 19 20 20 21 21 21 21 21 21 21 18
31 31 31 31 31 29 29 25 26 26 25 25 25 27 26 25 24 24 23 22 19 17 17 17 17 17 18 18 18 17 18 18 19 18 18 19 19 19 20 20 20 21 20 21 21 21 21 22 21
31 31 31 32 31 29 27 24 27 27 26 27 26 27 26 26 24 24 24 22 20 18 17 17 17 17 17 18 17 18 19 19 19 20 19 19 19 19 20 20 19 21 20 20 21 21 22 21 21
32 32 31 31 31 28 26 22 20 24 28 26 26 27 27 26 25 25 24 23 22 19 18 17 17 18 18 18 17 18 19 18 19 19 19 20 19 20 20 19 19 19 20 19 20 20 20 21 21
31 32 32 32 31 28 25 18 18 21 24 28 27 27 26 26 26 25 25 24 22 20 19 18 18 18 19 17 18 19 19 18 20 20 20 20 20 19 19 19 19 19 20 20 20 20 20 21 21
31 33 32 32 31 31 26 24 20 18 20 28 27 27 28 27 27 26 25 24 23 21 19 18 18 19 18 18 18 19 20 20 20 20 20 19 20 19 19 19 19 19 20 20 20 20 19 21 20
33 31 32 32 32 19 22 27 18 19 22 23 25 28 28 29 28 27 25 24 24 22 21 19 18 19 19 19 18 18 19 19 19 20 20 20 19 20 19 19 19 19 19 19 19 19 20 20 20
32 31 29 30 27 26 24 28 28 26 24 24 26 28 27 28 28 26 25 24 24 23 22 21 20 19 19 20 19 19 19 18 20 18 19 20 19 19 20 20 20 20 19 19 19 19 19 19 20
32 32 30 28 30 30 31 31 31 33 33 33 31 30 28 27 27 27 25 24 24 23 22 21 20 20 19 18 20 20 20 19 18 19 20 20 20 20 20 19 19 20 20 19 19 19 19 19 19
31 31 33 31 32 32 32 32 33 34 33 33 32 31 29 28 28 28 27 25 24 24 23 22 21 21 20 19 20 20 20 20 19 20 20 20 19 20 20 19 18 19 19 19 19 19 19 20 19
32 33 30 32 28 29 31 31 30 25 18 31 33 32 31 29 29 28 27 25 25 24 23 23 22 22 21 19 20 20 19 20 19 19 20 20 20 20 19 19 18 19 20 19 20 19 19 20 20
32 31 31 32 32 30 29 28 33 28 25 33 33 32 31 31 30 29 27 26 26 25 24 23 22 21 21 19 19 20 19 19 20 19 19 20 19 20 20 20 19 19 19 19 19 20 20 19 19
34 33 33 31 30 31 31 31 34 31 34 34 33 32 31 30 30 29 28 27 26 25 24 23 23 22 21 20 20 20 20 19 19 20 19 19 20 20 20 19 20 20 19 19 19 19 20 19 19
Height
1509 1509 1509 1511 1517 1508 1504 1484 1475 1483 1484 1486 1489 1491 1495 1502 1503 1524 1522 1524 1526 1527 1531 1533 1536 1539 1540 1543 1546 1547 1550 1551 1553 1555 1558 1558 1560 1560 1560 1559 1559 1558 1559 1560 1560 1558 1557 1558 1560
1508 1510 1513 1510 1526 1528 1506 1476 1485 1483 1486 1488 1490 1494 1500 1510 1510 1518 1521 1525 1527 1529 1531 1533 1536 1540 1542 1545 1548 1549 1552 1554 1555 1558 1560 1561 1563 1563 1562 1562 1561 1560 1560 1561 1560 1559 1558 1560 1561
1509 1512 1513 1508 1527 1534 1517 1482 1485 1488 1488 1486 1489 1496 1506 1514 1515 1520 1522 1527 1528 1532 1533 1535 1537 1540 1543 1548 1549 1552 1552 1555 1557 1558 1561 1562 1563 1562 1564 1563 1562 1561 1561 1561 1562 1561 1560 1561 1564
1509 1510 1508 1504 1525 1516 1520 1490 1485 1487 1491 1492 1493 1500 1510 1515 1517 1521 1524 1526 1529 1532 1533 1535 1538 1540 1541 1548 1550 1552 1554 1556 1557 1558 1559 1560 1563 1564 1564 1564 1562 1561 1561 1563 1564 1563 1561 1563 1568
1509 1503 1500 1510 1512 1510 1497 1487 1488 1492 1491 1494 1496 1504 1512 1517 1519 1521 1525 1528 1530 1532 1534 1537 1540 1543 1545 1548 1550 1553 1555 1557 1558 1559 1560 1563 1564 1565 1564 1564 1562 1561 1563 1567 1567 1563 1561 1564 1568
1507 1505 1518 1516 1509 1509 1502 1486 1488 1493 1492 1496 1496 1503 1514 1518 1521 1524 1526 1529 1532 1533 1534 1537 1539 1543 1547 1548 1551 1553 1555 1556 1558 1559 1561 1565 1564 1565 1565 1563 1561 1562 1565 1567 1565 1562 1560 1564 1566
1506 1501 1514 1505 1513 1507 1498 1487 1493 1494 1496 1499 1498 1506 1517 1519 1521 1525 1528 1529 1532 1533 1535 1537 1541 1545 1542 1545 1550 1552 1554 1556 1556 1558 1563 1565 1565 1566 1564 1563 1562 1564 1566 1565 1562 1561 1560 1563 1564
1504 1506 1512 1506 1510 1517 1505 1495 1492 1495 1501 1500 1500 1503 1514 1518 1522 1525 1527 1529 1532 1532 1535 1538 1540 1541 1544 1547 1550 1551 1553 1554 1556 1558 1559 1563 1565 1565 1564 1563 1563 1565 1564 1565 1565 1564 1562 1563 1562
1504 1511 1525 1521 1505 1507 1507 1504 1496 1497 1497 1500 1502 1505 1511 1518 1522 1526 1530 1532 1533 1536 1537 1538 1540 1542 1544 1546 1549 1550 1551 1552 1552 1557 1560 1561 1565 1565 1564 1563 1564 1563 1566 1569 1568 1566 1565 1566 1564
1503 1511 1522 1510 1498 1501 1503 1500 1500 1499 1502 1505 1506 1509 1514 1519 1523 1526 1530 1531 1534 1536 1539 1539 1540 1542 1544 1545 1547 1548 1549 1551 1553 1557 1561 1564 1568 1567 1566 1564 1562 1562 1569 1571 1569 1566 1566 1568 1564
1500 1508 1503 1503 1501 1500 1501 1502 1502 1500 1505 1507 1505 1511 1517 1521 1524 1527 1529 1531 1533 1536 1538 1540 1540 1541 1542 1543 1546 1549 1550 1551 1554 1560 1562 1560 1564 1568 1566 1565 1562 1563 1571 1572 1570 1565 1567 1568 1562
1500 1500 1499 1502 1502 1501 1498 1498 1500 1502 1505 1507 1506 1510 1514 1520 1521 1524 1528 1529 1533 1536 1537 1539 1540 1541 1542 1543 1546 1548 1549 1551 1556 1562 1562 1561 1563 1568 1567 1565 1560 1563 1572 1573 1571 1555 1564 1567 1568
1498 1498 1497 1499 1500 1499 1500 1499 1499 1503 1504 1503 1507 1510 1514 1519 1520 1522 1525 1527 1531 1535 1535 1537 1538 1539 1541 1543 1546 1548 1550 1553 1556 1561 1565 1561 1565 1564 1566 1563 1562 1565 1574 1578 1574 1570 1574 1574 1571
1495 1496 1496 1497 1497 1499 1499 1499 1498 1507 1507 1503 1508 1510 1512 1515 1517 1521 1525 1528 1530 1533 1534 1536 1537 1539 1541 1543 1545 1548 1551 1553 1556 1559 1565 1564 1564 1564 1563 1562 1564 1566 1572 1577 1581 1580 1581 1577 1570
1495 1496 1494 1496 1497 1496 1500 1503 1498 1506 1501 1505 1505 1509 1513 1514 1517 1520 1523 1524 1526 1530 1532 1535 1537 1539 1542 1544 1546 1550 1551 1554 1555 1557 1561 1564 1562 1564 1563 1563 1566 1568 1570 1574 1577 1581 1578 1576 1576
1491 1489 1497 1488 1495 1493 1500 1506 1505 1510 1504 1498 1502 1508 1512 1514 1517 1520 1522 1523 1527 1529 1531 1534 1536 1538 1542 1545 1548 1551 1553 1556 1556 1558 1562 1562 1563 1563 1564 1566 1568 1570 1571 1570 1573 1568 1570 1579 1569
1489 1496 1486 1485 1486 1490 1494 1496 1498 1498 1502 1496 1500 1504 1510 1515 1516 1519 1521 1522 1524 1527 1530 1533 1536 1539 1542 1546 1548 1552 1554 1557 1553 1559 1562 1563 1563 1563 1564 1567 1570 1571 1571 1569 1570 1569 1567 1569 1575
1497 1487 1478 1479 1480 1484 1486 1489 1488 1491 1493 1498 1498 1500 1506 1512 1515 1517 1520 1522 1523 1528 1531 1534 1536 1539 1542 1546 1549 1552 1554 1553 1554 1560 1562 1562 1563 1563 1564 1566 1569 1571 1570 1570 1568 1569 1572 1567 1560
1482 1480 1475 1470 1471 1479 1480 1488 1489 1492 1495 1495 1496 1496 1502 1507 1510 1516 1518 1521 1525 1527 1531 1533 1536 1539 1542 1545 1549 1552 1554 1555 1555 1557 1560 1562 1563 1563 1564 1565 1567 1568 1572 1571 1570 1575 1576 1575 1573
1479 1475 1472 1467 1469 1479 1487 1491 1490 1491 1494 1494 1493 1492 1498 1503 1508 1512 1516 1520 1523 1525 1528 1532 1535 1537 1541 1545 1549 1552 1551 1552 1557 1560 1563 1564 1563 1564 1564 1564 1564 1577 1579 1582 1575 1574 1576 1576 1575
1472 1468 1473 1475 1469 1476 1488 1507 1504 1499 1488 1494 1493 1491 1491 1497 1501 1507 1512 1517 1523 1525 1527 1530 1533 1536 1540 1544 1548 1550 1552 1554 1557 1559 1563 1562 1562 1563 1564 1564 1561 1577 1576 1581 1573 1571 1572 1570 1570
1478 1464 1467 1466 1469 1487 1489 1536 1521 1505 1495 1486 1491 1491 1490 1492 1496 1502 1508 1513 1519 1524 1528 1529 1531 1535 1539 1543 1545 1549 1554 1557 1559 1561 1560 1560 1562 1562 1563 1564 1563 1564 1569 1569 1570 1572 1571 1571 1567
1473 1462 1466 1464 1466 1466 1489 1504 1513 1508 1501 1477 1481 1485 1483 1486 1491 1496 1503 1509 1514 1520 1525 1528 1530 1534 1538 1540 1543 1547 1550 1554 1557 1557 1557 1559 1560 1562 1563 1564 1565 1565 1565 1567 1568 1571 1570 1570 1568
1466 1469 1464 1456 1457 1532 1508 1484 1523 1504 1479 1472 1474 1476 1479 1480 1485 1491 1499 1505 1512 1516 1522 1525 1529 1531 1535 1539 1540 1544 1549 1550 1553 1554 1555 1556 1557 1559 1562 1563 1565 1565 1567 1568 1568 1569 1570 1570 1569
1468 1473 1483 1482 1491 1503 1476 1469 1467 1460 1454 1454 1461 1464 1472 1476 1482 1487 1494 1501 1510 1513 1518 1522 1525 1529 1532 1536 1539 1541 1545 1550 1553 1552 1553 1555 1555 1557 1559 1560 1561 1562 1564 1567 1568 1568 1569 1571 1569
1466 1465 1480 1497 1481 1468 1447 1460 1452 1433 1435 1437 1445 1455 1465 1474 1478 1483 1489 1495 1501 1508 1514 1519 1521 1526 1529 1532 1535 1539 1543 1547 1551 1549 1552 1553 1554 1554 1558 1560 1560 1558 1560 1564 1567 1567 1569 1570 1569
1467 1473 1455 1465 1453 1459 1446 1443 1429 1431 1434 1440 1440 1446 1456 1465 1473 1478 1483 1490 1497 1502 1508 1515 1518 1522 1526 1529 1532 1535 1539 1542 1545 1547 1549 1550 1551 1551 1557 1551 1565 1562 1555 1560 1563 1565 1566 1568 1568
1457 1454 1472 1461 1492 1488 1460 1456 1461 1464 1481 1438 1442 1444 1448 1456 1463 1471 1477 1485 1493 1498 1504 1511 1514 1518 1522 1527 1529 1532 1536 1539 1543 1545 1547 1549 1549 1548 1554 1562 1544 1565 1555 1555 1559 1562 1563 1565 1566
1453 1462 1458 1456 1458 1477 1478 1472 1437 1447 1450 1437 1439 1442 1449 1453 1457 1464 1471 1479 1488 1495 1499 1506 1512 1515 1518 1523 1527 1529 1532 1536 1539 1542 1543 1545 1547 1546 1545 1555 1558 1556 1550 1553 1556 1559 1560 1561 1562
1439 1446 1446 1463 1469 1457 1459 1458 1428 1435 1435 1436 1436 1442 1447 1452 1456 1461 1468 1474 1482 1489 1495 1500 1506 1511 1514 1519 1523 1526 1529 1532 1535 1537 1540 1541 1543 1543 1542 1542 1543 1545 1548 1551 1553 1555 1556 1558 1557
Wind_Speed
2 7 8 11 3 3 4 8 12 9 9 13 14 11 18 16 6 9 23 18 19 21 19 19 16 13 12 11 10 13 12 13 13 11 10 10 9 8 8 9 8 8 10 10 9 8 7 8 8
1 8 7 6 4 5 5 12 14 14 12 8 10 13 21 12 18 19 19 20 21 20 18 19 16 13 11 9 9 10 9 11 10 8 7 7 6 5 8 10 9 9 10 10 8 8 8 8 8
3 4 5 2 4 5 5 9 12 10 4 8 5 11 10 4 13 10 21 23 24 22 17 21 19 16 12 9 8 8 9 9 8 9 9 8 6 8 8 7 8 8 9 9 8 8 8 8 8
7 8 9 8 5 3 18 4 9 12 14 6 5 11 14 12 7 19 20 25 27 24 19 21 18 17 13 10 10 9 8 8 9 10 11 9 9 10 8 8 8 7 8 9 8 8 8 8 8
11 14 7 3 2 4 15 6 12 9 1 12 7 13 10 11 13 16 20 17 21 22 19 21 20 15 14 11 8 8 8 7 7 9 9 8 11 9 9 7 6 8 6 8 8 8 7 6 4
6 6 0 4 0 4 14 3 7 7 4 6 1 17 9 12 16 15 17 16 18 16 20 19 16 18 14 10 7 6 6 8 10 9 11 8 9 13 11 9 7 7 7 8 8 8 6 4 4
9 5 7 9 6 9 8 6 9 4 16 9 4 8 10 15 16 15 15 19 15 12 14 14 17 19 15 16 14 12 8 8 8 8 12 9 10 13 9 9 6 6 8 8 9 7 6 4 3
4 4 3 5 1 7 16 23 5 13 2 3 6 6 12 16 16 18 13 15 12 11 10 13 12 12 12 15 14 14 10 8 10 10 15 15 12 14 10 7 6 7 7 7 6 5 5 3 2
8 3 5 7 13 8 7 8 1 3 2 10 8 16 19 20 17 16 16 16 16 14 13 8 13 13 12 14 14 13 13 10 12 13 15 16 13 10 6 6 5 6 5 4 3 3 1 0 4
10 2 7 15 12 5 2 16 3 6 12 11 7 18 19 20 17 17 18 15 14 15 14 13 11 12 14 14 14 13 13 14 13 19 17 15 12 11 9 5 7 5 3 5 6 3 2 7 4
6 5 6 9 9 12 9 10 4 1 5 4 3 20 18 14 12 16 15 16 15 15 13 12 15 13 11 9 13 10 13 15 18 21 13 18 14 14 13 3 4 3 6 3 5 6 4 5 14
4 7 7 5 8 10 7 2 7 8 7 5 11 23 20 16 15 14 12 12 15 13 11 11 11 13 13 11 13 14 16 17 18 16 16 14 12 15 12 8 3 2 3 4 6 15 5 6 7
7 5 4 5 6 6 7 7 3 7 11 11 11 21 18 18 15 14 16 14 14 15 13 11 11 12 12 12 14 18 20 13 12 12 15 11 19 10 6 9 4 8 8 4 2 9 8 7 9
6 4 6 1 2 3 7 8 9 11 12 12 10 13 14 18 14 20 18 13 11 13 14 13 10 11 12 12 17 23 19 16 13 12 10 3 5 7 9 9 5 11 8 4 4 6 8 8 9
11 8 10 7 6 3 3 4 2 18 11 9 13 14 12 13 11 10 9 12 9 15 14 14 13 13 16 22 23 19 17 14 14 12 10 8 10 11 7 4 5 8 2 4 5 8 7 11 8
14 16 5 10 10 10 7 2 12 8 27 18 16 13 14 11 11 8 7 12 13 15 13 15 14 17 21 22 18 17 16 12 18 11 10 8 4 11 11 8 4 7 2 2 6 6 6 12 10
9 10 10 9 17 13 11 1 17 30 39 10 12 17 14 13 11 10 10 12 14 16 16 17 17 16 21 22 20 12 10 12 9 12 11 7 7 13 10 7 7 5 2 7 3 13 9 6 14
15 10 10 3 12 6 10 7 5 12 6 13 15 20 18 16 16 13 11 13 15 17 18 18 17 18 22 23 18 10 13 21 14 14 16 7 7 9 9 5 6 7 3 7 3 10 9 15 5
8 11 13 5 5 4 9 14 9 18 15 20 24 19 20 23 21 17 15 15 17 17 20 22 21 18 21 23 19 11 18 14 4 9 13 8 8 8 11 7 8 11 2 7 3 2 5 7 8
13 16 7 4 4 6 15 4 5 15 18 21 20 19 23 23 20 19 19 17 18 19 20 24 16 17 22 20 15 13 11 14 7 9 8 7 9 10 12 7 10 3 7 4 5 4 4 7 5
17 9 8 10 2 8 5 12 19 22 18 20 24 18 21 25 23 24 21 21 20 19 16 22 24 19 21 17 15 17 19 13 14 10 11 8 8 7 11 9 9 5 5 6 3 4 5 10 9
16 7 11 16 11 6 11 5 10 11 20 16 20 21 26 31 27 27 24 25 24 23 20 19 18 20 24 16 16 17 17 14 13 14 9 9 10 8 11 8 11 7 4 3 4 5 6 6 10
10 15 13 18 16 11 15 7 1 13 16 16 22 27 31 33 29 32 26 25 26 24 23 22 19 21 23 22 18 15 15 14 12 12 7 17 8 10 9 9 9 7 6 2 10 10 7 6 5
7 14 20 20 17 5 18 14 6 11 13 15 24 26 26 25 30 29 26 26 26 25 24 24 22 22 23 23 20 19 15 13 10 12 17 12 13 8 11 11 9 8 5 6 7 8 6 6 8
10 14 13 10 2 9 19 12 11 28 20 21 24 30 30 22 17 32 29 30 28 28 26 26 24 24 23 26 26 23 20 11 16 8 12 15 14 14 16 12 14 7 7 7 7 4 6 9 7
16 14 13 20 16 6 15 6 8 12 15 13 26 28 30 25 22 31 35 36 32 32 29 27 25 23 25 25 25 26 22 18 17 14 14 13 18 16 16 15 16 8 10 7 5 4 8 7 15
17 14 16 17 16 14 7 8 8 7 14 13 19 24 30 30 28 26 33 36 33 34 31 30 28 23 22 26 25 24 23 22 16 19 15 17 12 17 16 12 15 11 7 8 11 9 7 9 11
12 12 14 11 10 14 12 11 2 13 12 5 10 12 14 30 32 31 35 35 32 31 31 29 29 27 22 23 24 23 24 22 21 19 19 16 19 24 15 7 12 17 12 13 16 14 11 12 10
9 12 10 15 11 11 12 3 10 17 19 8 10 12 11 8 21 28 34 34 34 28 31 30 29 27 23 25 27 22 22 22 22 24 20 24 17 18 20 17 17 12 10 11 13 10 15 17 12
15 14 16 10 11 11 10 11 11 12 8 9 12 14 14 10 11 23 25 33 35 31 30 31 32 31 29 25 28 27 23 20 20 22 25 22 26 26 25 22 22 22 17 15 16 15 11 14 14
Wind_Direction
309 34 13 303 265 308 255 107 91 60 54 60 50 62 79 62 65 113 145 158 147 146 146 144 144 141 136 143 138 144 134 131 129 122 112 111 112 131 139 136 135 135 136 139 148 152 161 166 160
217 267 282 270 44 337 309 103 76 62 77 115 82 57 83 72 93 126 128 155 143 141 144 146 140 137 135 141 141 137 142 139 126 118 110 110 124 122 119 122 122 125 139 145 149 153 157 162 159
57 291 253 184 117 249 275 78 84 93 65 18 94 97 74 49 76 107 142 141 145 138 146 142 144 137 132 127 127 133 139 140 132 123 126 127 130 125 124 114 138 142 143 145 148 153 165 166 150
305 246 242 258 136 247 270 261 85 67 29 65 23 85 85 76 93 128 140 145 139 143 165 150 153 157 136 146 153 148 155 149 146 143 144 140 133 132 126 129 138 144 159 148 156 163 170 159 139
271 271 272 40 169 220 277 87 117 74 166 37 37 105 91 78 105 152 148 146 143 163 165 149 143 145 158 159 159 158 160 152 161 160 157 148 147 163 142 159 165 176 158 146 153 162 172 169 164
251 291 316 304 215 305 280 84 93 79 132 94 157 96 86 116 129 139 144 155 145 148 165 179 188 189 170 160 172 172 196 181 192 192 184 170 159 167 170 190 193 181 163 154 160 179 195 186 186
330 323 344 301 81 257 311 90 20 166 75 57 34 110 118 129 137 146 144 147 151 170 179 176 188 201 205 196 209 211 217 197 226 218 183 175 181 180 178 191 206 186 170 164 178 198 212 200 218
284 10 257 335 19 11 307 349 348 84 65 87 24 153 153 149 141 145 162 165 162 154 148 179 189 188 190 200 208 211 208 237 201 173 176 175 183 182 192 206 200 197 186 176 190 218 224 215 272
294 12 347 319 301 154 199 255 163 339 40 69 44 95 136 145 144 151 146 141 146 149 166 175 166 175 182 194 198 200 216 215 196 177 165 166 167 186 191 189 232 233 205 170 171 216 226 328 305
268 60 207 224 297 94 162 314 354 290 59 54 321 102 126 142 150 157 158 169 155 159 167 187 184 192 188 203 206 186 204 184 171 158 147 133 152 164 198 242 239 228 165 117 111 85 281 268 284
18 315 349 314 334 304 145 242 305 252 69 94 218 125 135 149 158 177 176 185 169 177 197 194 179 201 182 183 183 190 167 158 163 145 150 157 174 199 185 208 205 152 110 90 87 322 285 329 309
335 246 342 334 287 285 263 228 242 63 173 143 253 141 143 165 171 183 184 204 181 167 183 197 194 205 186 187 173 165 171 146 143 146 151 163 180 213 182 260 222 286 349 348 219 212 268 17 303
273 4 351 296 278 255 274 256 189 136 189 155 138 151 158 167 171 172 171 146 149 168 182 200 200 196 189 182 178 174 154 143 152 165 174 185 188 179 158 193 191 202 207 193 275 330 0 333 332
325 260 292 180 196 233 247 215 243 339 292 134 158 152 162 169 172 163 156 164 167 176 180 179 190 186 176 170 163 155 162 157 163 161 149 142 142 145 217 218 215 241 208 189 148 326 352 343 324
286 251 243 183 195 186 175 215 218 148 256 180 179 162 172 170 162 162 179 179 166 183 195 196 178 175 161 151 150 157 162 167 173 178 175 176 151 181 188 181 197 259 253 41 35 359 308 321 341
257 313 207 165 192 168 192 220 130 195 187 215 165 155 178 176 183 175 159 163 156 159 177 177 173 165 159 156 157 159 173 197 156 148 167 180 150 177 162 204 195 252 206 40 334 268 341 360 3
275 245 236 166 185 149 206 245 186 200 226 131 207 173 158 187 176 171 155 157 156 172 174 158 157 158 174 165 151 159 201 182 199 176 179 177 190 168 159 185 228 249 38 338 301 337 318 302 294
288 327 308 307 169 203 240 217 186 205 114 193 238 173 175 182 191 172 168 155 159 151 163 155 161 176 168 171 158 141 182 176 166 179 190 178 187 188 170 181 233 219 112 289 11 8 351 322 5
295 282 278 105 126 238 264 172 184 198 196 198 227 185 168 186 181 179 168 156 160 163 170 164 188 185 173 174 171 149 194 190 101 169 154 185 196 231 181 178 259 204 215 254 226 202 274 314 318
277 272 0 38 164 175 3 44 212 201 215 218 214 202 183 193 178 180 169 163 167 166 179 167 186 188 179 174 162 165 169 169 210 183 196 204 203 239 191 203 239 241 282 316 289 301 291 313 1
266 293 352 301 97 82 337 360 330 324 206 210 226 232 195 188 187 178 173 169 172 177 181 176 194 187 180 164 169 169 174 198 179 190 192 224 218 235 181 239 247 171 208 281 45 14 329 333 359
283 33 305 293 286 303 162 179 271 347 320 207 229 222 235 185 192 172 176 175 176 179 181 201 193 184 168 178 198 187 178 164 181 189 215 221 229 236 200 244 250 274 189 18 10 339 291 302 331
302 313 305 295 287 258 184 128 29 47 287 249 205 224 228 184 189 178 178 179 180 180 185 197 193 185 182 186 196 204 188 169 181 193 212 192 232 222 219 237 258 281 246 324 286 268 267 266 331
322 285 283 268 257 70 292 281 186 199 177 244 253 205 228 218 191 173 173 177 182 182 185 198 201 197 188 188 191 193 212 221 188 216 213 197 207 254 220 219 241 257 250 241 271 299 303 294 263
239 259 275 281 102 254 233 254 164 209 190 202 213 193 208 217 179 171 177 176 186 184 186 195 211 210 203 198 199 203 201 209 199 195 204 203 224 219 231 213 228 250 256 245 251 273 274 276 306
263 269 291 306 318 310 237 345 143 174 143 158 178 183 185 199 216 175 175 179 184 187 187 193 211 216 208 211 210 213 213 211 213 211 204 225 240 231 232 233 230 234 232 262 251 264 295 293 268
250 251 271 289 301 298 14 3 337 125 126 151 162 165 173 183 194 197 184 184 182 184 187 193 208 218 214 211 216 222 227 226 217 218 224 226 232 220 230 267 235 231 217 256 250 250 246 258 277
260 295 293 274 297 289 323 300 57 60 36 221 129 140 161 180 188 196 180 177 183 183 189 194 209 218 222 211 217 221 225 225 211 213 224 233 237 230 231 230 229 242 241 246 252 251 250 246 245
243 234 230 271 287 294 293 115 238 163 205 171 161 143 143 176 181 187 180 182 186 189 188 193 202 211 216 210 218 219 231 230 222 217 222 222 222 233 247 244 225 238 258 246 254 253 235 252 264
219 258 274 232 242 246 274 300 99 7 34 335 158 143 141 163 186 179 181 176 186 188 187 191 198 205 218 214 212 220 223 228 234 226 219 232 232 229 236 248 256 255 242 245 250 262 262 257 267